When you browse on this site, cookies collect data to enhance your experience and personalize the content and advertising you see.
Visit our Privacy Policy to learn more. By continuing to use the site, you agree to this use of cookies and data.

Meteo pe oră la Dzielnik

Astăzi, 26 Septembrie, Sâmbătă

Timp Temperatura Precipitaţii Vânt Presiune Umiditate
00:00 +19°C° 0 mm 6 m/s 734 mmHg 79%
01:00 +19°C° 0 mm 6 m/s 734 mmHg 73%
02:00 +19°C° 0 mm 6 m/s 734 mmHg 73%
03:00 +19°C° 0 mm 5 m/s 733 mmHg 73%
04:00 +19°C° 0 mm 5 m/s 733 mmHg 74%
05:00 +17°C° 0 mm 6 m/s 733 mmHg 73%
06:00 +17°C° 0 mm 6 m/s 733 mmHg 73%
07:00 +17°C° 0 mm 6 m/s 732 mmHg 72%
08:00 +18°C° 0 mm 7 m/s 732 mmHg 68%
09:00 +21°C° 0 mm 8 m/s 732 mmHg 65%
10:00 +22°C° 0 mm 8 m/s 733 mmHg 61%
11:00 +22°C° 0 mm 8 m/s 733 mmHg 61%
12:00 +22°C° 0 mm 8 m/s 733 mmHg 62%
13:00 +22°C° 0 mm 8 m/s 732 mmHg 62%
14:00 +21°C° 0.2 mm 7 m/s 733 mmHg 67%
15:00 +21°C° 0.2 mm 6 m/s 733 mmHg 72%
16:00 +20°C° 0.2 mm 5 m/s 733 mmHg 77%
17:00 +19°C° 0.8 mm 4 m/s 733 mmHg 82%
18:00 +18°C° 0.8 mm 4 m/s 734 mmHg 87%
19:00 +17°C° 0.8 mm 3 m/s 734 mmHg 92%
20:00 +17°C° 1.4 mm 3 m/s 734 mmHg 93%
21:00 +17°C° 1.4 mm 2 m/s 734 mmHg 94%
22:00 +17°C° 1.4 mm 2 m/s 734 mmHg 95%
23:00 +17°C° 1.8 mm 2 m/s 734 mmHg 94%

Mâine, 27 Septembrie, Duminică

Timp Temperatura Precipitaţii Vânt Presiune Umiditate
00:00 +17°C° 1.8 mm 2 m/s 734 mmHg 94%
01:00 +17°C° 1.8 mm 3 m/s 733 mmHg 93%
02:00 +17°C° 0.4 mm 4 m/s 733 mmHg 91%
03:00 +16°C° 0.4 mm 5 m/s 733 mmHg 89%
04:00 +17°C° 0.4 mm 6 m/s 732 mmHg 86%
05:00 +17°C° 0.7 mm 7 m/s 732 mmHg 86%
06:00 +16°C° 0.7 mm 7 m/s 733 mmHg 86%
07:00 +16°C° 0.7 mm 7 m/s 733 mmHg 86%
08:00 +16°C° 0.8 mm 7 m/s 733 mmHg 87%
09:00 +15°C° 0.8 mm 7 m/s 734 mmHg 87%
10:00 +14°C° 0.8 mm 7 m/s 734 mmHg 88%
11:00 +12°C° 1.1 mm 7 m/s 735 mmHg 88%
12:00 +10°C° 1.1 mm 7 m/s 735 mmHg 88%
13:00 +9°C° 1.1 mm 8 m/s 736 mmHg 88%
14:00 +9°C° 0.6 mm 8 m/s 737 mmHg 88%
15:00 +9°C° 0.6 mm 8 m/s 738 mmHg 87%
16:00 +9°C° 0.6 mm 8 m/s 739 mmHg 87%
17:00 +9°C° 0.1 mm 7 m/s 739 mmHg 86%
18:00 +9°C° 0.1 mm 5 m/s 740 mmHg 86%
19:00 +10°C° 0.1 mm 4 m/s 741 mmHg 85%
20:00 +10°C° 0 mm 4 m/s 742 mmHg 85%
21:00 +10°C° 0 mm 4 m/s 743 mmHg 85%
22:00 +9°C° 0 mm 5 m/s 744 mmHg 85%
23:00 +8°C° 0 mm 4 m/s 744 mmHg 86%

Poimâine, 28 Septembrie, Luni

Timp Temperatura Precipitaţii Vânt Presiune Umiditate
00:00 +8°C° 0 mm 4 m/s 744 mmHg 88%
01:00 +7°C° 0 mm 4 m/s 744 mmHg 89%
02:00 +7°C° 0 mm 4 m/s 744 mmHg 88%
03:00 +8°C° 0 mm 3 m/s 745 mmHg 88%
04:00 +8°C° 0 mm 3 m/s 745 mmHg 87%
05:00 +7°C° 0 mm 4 m/s 746 mmHg 84%
06:00 +8°C° 0 mm 4 m/s 746 mmHg 82%
07:00 +8°C° 0 mm 4 m/s 746 mmHg 79%
08:00 +11°C° 0 mm 4 m/s 746 mmHg 72%
09:00 +13°C° 0 mm 5 m/s 746 mmHg 64%
10:00 +15°C° 0 mm 5 m/s 746 mmHg 56%
11:00 +15°C° 0 mm 5 m/s 746 mmHg 57%
12:00 +15°C° 0 mm 4 m/s 746 mmHg 58%
13:00 +16°C° 0 mm 3 m/s 746 mmHg 59%
14:00 +15°C° 0 mm 4 m/s 746 mmHg 61%
15:00 +15°C° 0 mm 4 m/s 746 mmHg 62%
16:00 +15°C° 0 mm 5 m/s 746 mmHg 63%
17:00 +15°C° 0 mm 5 m/s 745 mmHg 64%
18:00 +15°C° 0 mm 5 m/s 745 mmHg 66%
19:00 +15°C° 0 mm 4 m/s 745 mmHg 67%
20:00 +14°C° 0 mm 4 m/s 745 mmHg 71%
21:00 +13°C° 0 mm 4 m/s 745 mmHg 74%
22:00 +13°C° 0 mm 4 m/s 745 mmHg 78%
23:00 +12°C° 0 mm 3 m/s 745 mmHg 80%

29 Septembrie, Marţi

Timp Temperatura Precipitaţii Vânt Presiune Umiditate
00:00 +12°C° 0 mm 3 m/s 744 mmHg 83%
01:00 +13°C° 0 mm 2 m/s 744 mmHg 85%
02:00 +13°C° 0 mm 2 m/s 744 mmHg 86%
03:00 +12°C° 0 mm 2 m/s 744 mmHg 87%
04:00 +12°C° 0 mm 2 m/s 744 mmHg 88%
05:00 +13°C° 0 mm 2 m/s 744 mmHg 86%
06:00 +13°C° 0 mm 2 m/s 744 mmHg 84%
07:00 +13°C° 0 mm 2 m/s 744 mmHg 83%
08:00 +13°C° 1 mm 2 m/s 744 mmHg 85%
09:00 +12°C° 1 mm 3 m/s 744 mmHg 87%
10:00 +12°C° 1 mm 3 m/s 744 mmHg 90%
11:00 +13°C° 0.5 mm 3 m/s 744 mmHg 89%
12:00 +13°C° 0.5 mm 4 m/s 744 mmHg 89%
13:00 +13°C° 0.5 mm 4 m/s 744 mmHg 89%
14:00 +13°C° 0.2 mm 4 m/s 744 mmHg 90%
15:00 +13°C° 0.2 mm 4 m/s 744 mmHg 91%
16:00 +12°C° 0.2 mm 4 m/s 744 mmHg 91%
17:00 +12°C° 0.2 mm 4 m/s 744 mmHg 92%
18:00 +12°C° 0.2 mm 3 m/s 744 mmHg 93%
19:00 +12°C° 0.2 mm 3 m/s 745 mmHg 93%
20:00 +12°C° 0.1 mm 3 m/s 745 mmHg 93%
21:00 +12°C° 0.1 mm 3 m/s 745 mmHg 93%
22:00 +13°C° 0.1 mm 2 m/s 745 mmHg 93%
23:00 +13°C° 0 mm 2 m/s 744 mmHg 93%

30 Septembrie, Miercuri

Timp Temperatura Precipitaţii Vânt Presiune Umiditate
00:00 +13°C° 0 mm 2 m/s 744 mmHg 94%
01:00 +13°C° 0 mm 2 m/s 744 mmHg 94%
02:00 +13°C° 0 mm 2 m/s 744 mmHg 95%
03:00 +13°C° 0 mm 2 m/s 744 mmHg 95%
04:00 +13°C° 0 mm 2 m/s 744 mmHg 96%
05:00 +13°C° 0 mm 2 m/s 743 mmHg 95%
06:00 +13°C° 0 mm 2 m/s 743 mmHg 95%
07:00 +13°C° 0 mm 2 m/s 743 mmHg 95%
08:00 +13°C° 0.3 mm 2 m/s 743 mmHg 94%
09:00 +13°C° 0.3 mm 3 m/s 743 mmHg 94%
10:00 +13°C° 0.3 mm 3 m/s 743 mmHg 93%
11:00 +13°C° 1.1 mm 4 m/s 743 mmHg 94%
12:00 +13°C° 1.1 mm 4 m/s 742 mmHg 94%
13:00 +13°C° 1.1 mm 4 m/s 742 mmHg 95%
14:00 +13°C° 2.1 mm 4 m/s 742 mmHg 94%
15:00 +12°C° 2.1 mm 4 m/s 742 mmHg 94%
16:00 +12°C° 2.1 mm 4 m/s 742 mmHg 94%
17:00 +12°C° 0.5 mm 4 m/s 742 mmHg 94%
18:00 +12°C° 0.5 mm 3 m/s 742 mmHg 94%
19:00 +12°C° 0.5 mm 3 m/s 742 mmHg 93%
20:00 +12°C° 0.1 mm 3 m/s 742 mmHg 93%
21:00 +11°C° 0.1 mm 3 m/s 742 mmHg 93%
22:00 +11°C° 0.1 mm 3 m/s 741 mmHg 92%
23:00 +11°C° 0 mm 3 m/s 741 mmHg 92%

1 Octombrie, Joi

Timp Temperatura Precipitaţii Vânt Presiune Umiditate
00:00 +11°C° 0 mm 3 m/s 741 mmHg 92%
01:00 +11°C° 0 mm 3 m/s 740 mmHg 92%
02:00 +11°C° 0.3 mm 4 m/s 740 mmHg 92%
03:00 +11°C° 0.3 mm 4 m/s 740 mmHg 92%
04:00 +11°C° 0.3 mm 4 m/s 740 mmHg 92%
05:00 +11°C° 0.3 mm 4 m/s 740 mmHg 92%
06:00 +11°C° 0.3 mm 4 m/s 739 mmHg 91%
07:00 +11°C° 0.3 mm 3 m/s 739 mmHg 91%
08:00 +11°C° 0.1 mm 3 m/s 739 mmHg 89%
09:00 +11°C° 0.1 mm 3 m/s 739 mmHg 88%
10:00 +12°C° 0.1 mm 3 m/s 739 mmHg 86%
11:00 +12°C° 0 mm 3 m/s 739 mmHg 85%
12:00 +13°C° 0 mm 3 m/s 739 mmHg 83%
13:00 +14°C° 0 mm 3 m/s 739 mmHg 82%
14:00 +13°C° 0.1 mm 3 m/s 739 mmHg 84%
15:00 +13°C° 0.1 mm 3 m/s 738 mmHg 86%
16:00 +12°C° 0.1 mm 3 m/s 738 mmHg 87%
17:00 +13°C° 0.2 mm 2 m/s 738 mmHg 88%
18:00 +13°C° 0.2 mm 2 m/s 738 mmHg 89%
19:00 +12°C° 0.2 mm 1 m/s 738 mmHg 91%
20:00 +12°C° 0 mm 1 m/s 738 mmHg 91%
21:00 +12°C° 0 mm 1 m/s 738 mmHg 92%
22:00 +11°C° 0 mm 0 m/s 738 mmHg 93%
23:00 +12°C° 0.1 mm 1 m/s 738 mmHg 94%
Arată mai mult